[[{"header":{"parameterUnit":"m.s-1","parameterCategory":1,"la1":30.2991,"la2":30.254,"lo1":-89.0895,"lo2":-89.0444,"dy":0.0017,"dx":0.0017,"nx":28,"ny":28,"refTime":"2025-03-22T09:00:00:Z","depth":0,"parameterNumber":2,"parameterNumberName":"U-component_of_WINDS"},"data":[0,0,0,0,0,0,0,0,0,0,0,0,0,0,0,0,0,0,0,0,0,0,0,0,0,0,0,0,0,0,0,0,0,0,0,0,0,0,0,0,0,0,0,0,0,0,0,0,0,0,0,0,0,0,0,0,0,0,0.9106,0.9106,0,0.9107,0.9107,0.9107,0.9098,0.9098,0.9097,0.9097,0.9099,0.9099,0.91,0,0,0,0,0,0,0,0,0,0,0,0,0,0.9099,0.9099,0.9106,0.9106,0.9106,0.9107,0.9107,0.9107,0.9098,0.9098,0.9097,0.9097,0.9099,0.9099,0.91,0,0,0,0,0,0,0,0,0,0,0,0,0,0.9101,0.9099,0.9106,0.9102,0.9101,0.9107,0.9107,0.9107,0.9098,0.9098,0.9097,0.9097,0.9099,0.9099,0.91,0.9109,0,0,0.9101,0.9101,0,0,0,0,0,0,0,0,0.9101,0.9101,0.9102,0.9102,0.9102,0.9102,0.9105,0.9108,0.9098,0.9099,0.9097,0.9097,0.91,0.9101,0.9101,0.9109,0.911,0.9101,0.9101,0.9101,0.9101,0,0,0,0,0,0,0,0.9101,0.9101,0.9106,0.9102,0.9102,0.91,0.91,0.9105,0.9102,0.9099,0.9098,0.9099,0.91,0.9101,0.9101,0.911,0.9101,0.9101,0.9101,0.9102,0.9127,0.9128,0,0,0,0,0,0,0.9101,0.9101,0.9106,0.9106,0.91,0.9101,0.9101,0.9102,0.9102,0.9101,0.9099,0.9098,0.9101,0.9101,0.9101,0.9114,0.9101,0.9102,0.9102,0.9127,0.9127,0.9128,0,0,0,0,0,0,0.9101,0.9102,0.9106,0.9104,0.9104,0.9101,0.9103,0.9102,0.9103,0.9102,0.9101,0.9101,0.91,0.9101,0.9108,0.9114,0.9102,0.9102,0.9126,0.9127,0.9127,0.9138,0,0,0,0,0,0,0.9101,0.9102,0.9105,0.9104,0.9104,0.9112,0.9103,0.9103,0.9104,0.9103,0.9103,0.9103,0.91,0.9107,0.9108,0.9114,0.9103,0.9126,0.9126,0.9127,0.9137,0.9139,0.914,0,0,0,0,0,0.9101,0.9108,0.9105,0.9106,0.9108,0.9112,0.9112,0.9109,0.9104,0.9108,0.9107,0.9103,0.9113,0.9108,0.9109,0.9115,0.9125,0.9126,0.9127,0.9136,0.9138,0.914,0,0,0,0,0,0,0.911,0.9107,0.9104,0.9111,0.9112,0.9111,0.9115,0.9111,0.9113,0.9113,0.9109,0.9109,0.9116,0.9116,0.9111,0.9125,0.9118,0.912,0.9125,0.9127,0.9128,0.9128,0.9103,0,0,0,0,0,0.9112,0.9115,0.9113,0.912,0.912,0.9118,0.9119,0.9116,0.9117,0.9118,0.9117,0.9118,0.9122,0.9124,0.9128,0.9137,0.9137,0.9142,0.9143,0.9145,0.9146,0.9152,0.9154,0.9131,0.9131,0.9131,0,0,0.9118,0.9117,0.9119,0.9121,0.9122,0.9126,0.9118,0.9122,0.9125,0.9118,0.9125,0.9125,0.9126,0.9134,0.9138,0.9135,0.9153,0.9146,0.9147,0.9147,0.9153,0.9155,0.9157,0.9131,0.9131,0.9131,0,0,0.913,0.913,0.9135,0.9136,0.9136,0.9135,0.9136,0.9136,0.9135,0.9142,0.9137,0.9141,0.9147,0.9148,0.915,0.9164,0.9161,0.9166,0.9174,0.918,0.9182,0.9184,0.919,0.9192,0.9167,0.9167,0.9167,0,0.9137,0.9142,0.9138,0.9143,0.9145,0.9139,0.9145,0.9146,0.9148,0.9149,0.9145,0.9153,0.9154,0.9163,0.9167,0.9168,0.917,0.9165,0.9182,0.9184,0.9185,0.9191,0.9193,0.9167,0.9167,0.9167,0.9167,0,0.9151,0.9155,0.916,0.9161,0.9163,0.9169,0.9166,0.9169,0.9167,0.9166,0.9173,0.9174,0.9178,0.918,0.9177,0.9189,0.9187,0.9183,0.9176,0.9188,0.9193,0.9195,0.9168,0.9168,0.9168,0.9168,0,0,0.9168,0.9169,0.917,0.9172,0.9172,0.9175,0.9181,0.9185,0.9187,0.9189,0.9194,0.92,0.9197,0.9199,0.9197,0.9202,0.9214,0.9197,0.9197,0.9201,0.9228,0.9232,0.9234,0.9212,0.9212,0.9213,0.9228,0,0.918,0.919,0.9187,0.9196,0.92,0.9196,0.9201,0.9203,0.9202,0.9206,0.9206,0.9211,0.9205,0.9206,0.9211,0.9212,0.922,0.9211,0.9218,0.9218,0.9217,0.9236,0.924,0.9254,0.923,0.9231,0.9231,0,0.9196,0.9198,0.9208,0.9209,0.9211,0.9215,0.9219,0.9222,0.9225,0.9224,0.9227,0.9224,0.9231,0.9224,0.9234,0.9228,0.9231,0.9232,0.9232,0.9233,0.9225,0.9238,0.9259,0.9261,0.9234,0.9234,0.9233,0,0.9208,0.9213,0.922,0.9221,0.9223,0.9226,0.9227,0.9229,0.9232,0.9235,0.9237,0.9241,0.9244,0.9248,0.9247,0.9242,0.9257,0.925,0.9258,0.9258,0.9261,0.9261,0.9283,0.9263,0.9263,0.9263,0.9263,0,0.9221,0.9228,0.9226,0.923,0.9237,0.9235,0.9243,0.9243,0.9245,0.925,0.9247,0.9251,0.925,0.9255,0.9254,0.9263,0.9264,0.9265,0.9265,0.9265,0.9265,0.9267,0.9266,0.9263,0.9263,0.9263,0.9263,0,0.9236,0.9234,0.9242,0.9243,0.9243,0.9249,0.925,0.9255,0.9255,0.9261,0.9262,0.9263,0.9269,0.9268,0.9275,0.9275,0.9286,0.9284,0.9285,0.9285,0.9292,0.9292,0.9316,0.932,0.9297,0.9298,0.9298,0,0.9244,0.9249,0.9251,0.9254,0.9255,0.926,0.9263,0.9261,0.9264,0.9268,0.9272,0.9278,0.9282,0.9293,0.9294,0.9299,0.9298,0.9307,0.9299,0.93,0.9299,0.9299,0.93,0.9308,0.9308,0.9308,0.9309,0,0.926,0.926,0.9264,0.9268,0.9272,0.9275,0.9278,0.9281,0.9279,0.9283,0.9289,0.9293,0.93,0.9306,0.9312,0.9314,0.9311,0.9311,0.9313,0.9314,0.9314,0.9314,0.9289,0.931,0.931,0.931,0.931,0.931,0.9272,0.9277,0.9279,0.9284,0.9286,0.9289,0.9294,0.9295,0.9299,0.9305,0.9304,0.9311,0.9315,0.9322,0.9325,0.9331,0.9328,0.9331,0.9332,0.9332,0.9334,0.9313,0.9332,0.9332,0.9332,0.9332,0.9332,0,0.9288,0.929,0.9294,0.9299,0.9303,0.93,0.9304,0.9308,0.9314,0.9317,0.9322,0.933,0.9336,0.9338,0.9345,0.9349,0.9348,0.9351,0.9351,0.9351,0.9335,0.9333,0.9352,0.9352,0.9352,0.9352,0.9352,0.9352,0.9297,0.9305,0.9305,0.9314,0.9316,0.9322,0.9325,0.9328,0.9331,0.934,0.9345,0.9346,0.9349,0.9356,0.9362,0.9363,0.9366,0.9369,0.9369,0.9354,0.9352,0.935,0.9348,0.9369,0.9369,0.9384,0.9384,0.9385]},{"header":{"parameterUnit":"m.s-1","parameterCategory":1,"la1":30.2991,"la2":30.254,"lo1":-89.0895,"lo2":-89.0444,"dy":0.0017,"dx":0.0017,"nx":28,"ny":28,"refTime":"2025-03-22T09:00:00:Z","depth":0,"parameterNumber":3,"parameterNumberName":"V-component_of_WINDS"},"data":[0,0,0,0,0,0,0,0,0,0,0,0,0,0,0,0,0,0,0,0,0,0,0,0,0,0,0,0,0,0,0,0,0,0,0,0,0,0,0,0,0,0,0,0,0,0,0,0,0,0,0,0,0,0,0,0,0,0,2.8958,2.896,0,2.9197,2.92,2.9203,2.9295,2.9294,2.9293,2.9293,2.9544,2.9551,2.9558,0,0,0,0,0,0,0,0,0,0,0,0,0,2.8588,2.8594,2.8958,2.8961,2.8964,2.9197,2.92,2.9203,2.9295,2.9294,2.9293,2.9292,2.9541,2.955,2.9559,0,0,0,0,0,0,0,0,0,0,0,0,0,2.878,2.8596,2.8957,2.9037,2.9047,2.9196,2.92,2.9204,2.9295,2.9294,2.9293,2.9292,2.9538,2.9549,2.956,2.9649,0,0,2.9594,2.9598,0,0,0,0,0,0,0,0,2.8769,2.8793,2.9023,2.9032,2.9043,2.9215,2.9162,2.9353,2.9295,2.9201,2.9293,2.9292,2.9436,2.9455,2.9502,2.9661,2.9671,2.9595,2.9601,2.9606,2.9609,0,0,0,0,0,0,0,2.8755,2.8784,2.9053,2.9026,2.9038,2.9064,2.909,2.9198,2.9322,2.9209,2.9216,2.9243,2.9441,2.9492,2.9509,2.9675,2.9594,2.9604,2.9611,2.9615,2.9922,2.9924,0,0,0,0,0,0,2.8728,2.8772,2.9045,2.906,2.89,2.9071,2.9101,2.9161,2.9321,2.9344,2.9244,2.9247,2.9473,2.9496,2.9518,2.9635,2.9606,2.9616,2.9623,2.9921,2.9922,2.9924,0,0,0,0,0,0,2.872,2.8751,2.9035,2.8918,2.8956,2.9079,2.9146,2.9166,2.9217,2.9347,2.937,2.9272,2.9473,2.9503,2.9616,2.9645,2.9621,2.9631,2.9919,2.9921,2.9923,2.9868,0,0,0,0,0,0,2.8708,2.8748,2.8781,2.8918,2.8962,2.9127,2.9148,2.9172,2.9235,2.9241,2.9379,2.9402,2.9475,2.9599,2.9627,2.966,2.964,2.9917,2.992,2.9923,2.9867,2.9868,2.9868,0,0,0,0,0,2.8695,2.8756,2.8782,2.8814,2.9005,2.9128,2.9154,2.9235,2.9236,2.9272,2.9356,2.9397,2.9637,2.961,2.9642,2.9678,2.9915,2.9919,2.9922,2.9867,2.9868,2.9868,0,0,0,0,0,0,2.8621,2.8776,2.8806,2.8913,2.9006,2.9143,2.9191,2.9232,2.9329,2.9331,2.9429,2.946,2.9566,2.9634,2.9601,2.9775,2.9779,2.9789,2.9726,2.9728,2.9728,2.971,2.9649,0,0,0,0,0,2.8617,2.8701,2.8833,2.8915,2.896,2.9067,2.9123,2.9178,2.928,2.9321,2.9413,2.9512,2.961,2.9673,2.977,2.9877,2.9911,2.9919,2.9919,2.9918,2.9927,2.9992,2.9998,2.9936,2.9936,2.9936,0,0,2.861,2.8705,2.8752,2.8902,2.8981,2.9069,2.91,2.9191,2.9258,2.9335,2.9448,2.9519,2.9637,2.9748,2.9802,2.9808,2.9951,2.9923,2.9921,2.993,2.9996,3.0002,3.0007,2.9938,2.9938,2.9937,0,0,2.8642,2.8721,2.8799,2.8877,2.8996,2.9067,2.9086,2.9217,2.9267,2.9381,2.9442,2.9524,2.969,2.9772,2.9836,2.9901,2.9943,2.993,2.9932,2.9994,2.9999,3.0004,3.003,3.0037,2.9937,2.9937,2.9937,0,2.8619,2.8751,2.8834,2.8923,2.8988,2.906,2.9142,2.9215,2.936,2.9405,2.9409,2.962,2.9704,2.9837,2.9853,2.9901,2.9928,2.9915,2.9991,2.9997,3.0003,3.0029,3.0038,2.9935,2.9935,2.9935,2.9935,0,2.8718,2.8809,2.8859,2.8995,2.9067,2.9151,2.925,2.9312,2.9361,2.9432,2.955,2.9653,2.9774,2.9809,2.9858,2.995,2.9951,2.9971,2.9978,3.0005,3.0031,3.0041,2.9931,2.9932,2.9933,2.9934,0,0,2.8711,2.8892,2.8909,2.8974,2.911,2.9184,2.9273,2.939,2.9442,2.9541,2.962,2.9759,2.978,2.9852,2.9911,2.9966,3.0014,2.9981,2.9985,2.9985,3.0126,3.011,3.012,3.0042,3.0044,3.0046,3.0116,0,2.8763,2.8922,2.9001,2.9128,2.9215,2.9286,2.9364,2.9458,2.9528,2.9614,2.9692,2.979,2.9809,2.9853,2.991,2.9996,3.0044,2.9992,3.012,3.0124,3.009,3.0133,3.0117,3.0178,3.0127,3.0129,3.013,0,2.8844,2.8941,2.9076,2.9205,2.9244,2.9313,2.9427,2.9507,2.9617,2.9664,2.9745,2.9802,2.9902,2.9901,3.0042,3.0004,3.0062,3.0112,3.0117,3.0133,3.0129,3.0153,3.0199,3.0209,3.0146,3.0145,3.0144,0,2.8828,2.8991,2.9094,2.9147,2.9299,2.9346,2.9412,2.952,2.9586,2.9686,2.9731,2.9842,2.9904,2.999,3.0077,3.0068,3.0211,3.0216,3.0256,3.0253,3.0283,3.0281,3.0341,3.0317,3.0317,3.0316,3.0316,0,2.8879,2.8959,2.9089,2.9152,2.9246,2.9336,2.9427,2.9499,2.9595,2.9676,2.9744,2.9819,2.9929,3.0019,3.0088,3.0196,3.0223,3.0266,3.0284,3.0261,3.0256,3.0301,3.03,3.0319,3.0319,3.0318,3.0318,0,2.8876,2.8966,2.9083,2.9217,2.9253,2.9316,2.9433,2.9499,2.9572,2.9674,2.9703,2.9819,2.9928,3.0024,3.0169,3.0216,3.0327,3.0348,3.0289,3.0299,3.0334,3.033,3.0428,3.0446,3.0406,3.0407,3.0407,0,2.8903,2.8967,2.9108,2.9166,2.923,2.9323,2.939,2.9483,2.9551,2.9681,2.9732,2.9846,2.9942,3.0114,3.0213,3.0325,3.0351,3.0377,3.0368,3.0344,3.0354,3.035,3.0358,3.0378,3.0378,3.0377,3.0377,0,2.8943,2.8984,2.9077,2.9187,2.9265,2.9356,2.9449,2.9494,2.9604,2.9677,2.9789,2.9864,3.0012,3.0125,3.0248,3.032,3.0369,3.0379,3.0395,3.0373,3.0338,3.036,3.0292,3.0377,3.0377,3.0377,3.0377,3.0377,2.8958,2.9019,2.9128,2.923,2.931,2.9396,2.9465,2.9546,2.964,2.9767,2.9816,2.9931,3.0042,3.0212,3.0284,3.0377,3.0385,3.0407,3.0413,3.0417,3.0415,3.0321,3.04,3.04,3.04,3.04,3.04,0,2.9003,2.9077,2.917,2.9298,2.9379,2.9415,2.9521,2.9587,2.9686,2.9785,2.9878,3.0008,3.0119,3.0227,3.0344,3.0398,3.0424,3.0426,3.0424,3.0441,3.04,3.0375,3.0404,3.0404,3.0404,3.0404,3.0404,3.0404,2.9036,2.9141,2.9196,2.9343,2.9417,2.9528,2.9586,2.9667,2.9746,2.9888,2.998,3.0048,3.0152,3.0278,3.0382,3.0412,3.0453,3.0449,3.0485,3.0445,3.0443,3.0442,3.042,3.0457,3.0457,3.0519,3.0519,3.052]}]]